Satellite: SO-50
Catalog number: 27607
Epoch time:      10294.61489588
Element set:     298
Inclination:      064.5597 deg
RA of node:       332.4930 deg
Eccentricity:    0.0044667
Arg of perigee:   024.2495 deg
Mean anomaly:     336.0703 deg
Mean motion:   14.71590704 rev/day
Decay rate:       1.06e-06 rev/day^2
Epoch rev:           42098
Checksum:              324

Satellite: CO-55
Catalog number: 27844
Epoch time:      10294.58079738
Element set:     961
Inclination:      098.7105 deg
RA of node:       301.7520 deg
Eccentricity:    0.0009692
Arg of perigee:   161.8535 deg
Mean anomaly:     198.2990 deg
Mean motion:   14.20738466 rev/day
Decay rate:        8.6e-07 rev/day^2
Epoch rev:           37903
Checksum:              343

Satellite: CO-57
Catalog number: 27848
Epoch time:      10293.57238946
Element set:    0908
Inclination:      098.7160 deg
RA of node:       299.8773 deg
Eccentricity:    0.0009456
Arg of perigee:   169.6967 deg
Mean anomaly:     190.4411 deg
Mean motion:   14.20527722 rev/day
Decay rate:        5.4e-07 rev/day^2
Epoch rev:           37884
Checksum:              363

Satellite: AO-51
Catalog number: 28375
Epoch time:      10293.50899946
Element set:    0804
Inclination:      098.0731 deg
RA of node:       279.9455 deg
Eccentricity:    0.0085015
Arg of perigee:   076.7291 deg
Mean anomaly:     284.3368 deg
Mean motion:   14.40703957 rev/day
Decay rate:        3.8e-07 rev/day^2
Epoch rev:           33155
Checksum:              341

Satellite: GENESAT1
Catalog number: 29655
Epoch time:      10216.61700559
Element set:     226
Inclination:      040.0059 deg
RA of node:       067.3006 deg
Eccentricity:    0.0005079
Arg of perigee:   297.8744 deg
Mean anomaly:     064.7087 deg
Mean motion:   16.44862838 rev/day
Decay rate:  1.0637092e-01 rev/day^2
Epoch rev:           20777
Checksum:              320

Satellite: CP3
Catalog number: 31129
Epoch time:      10293.54031115
Element set:    0703
Inclination:      097.9280 deg
RA of node:       326.3275 deg
Eccentricity:    0.0101736
Arg of perigee:   204.2901 deg
Mean anomaly:     155.3473 deg
Mean motion:   14.52318955 rev/day
Decay rate:        8.3e-07 rev/day^2
Epoch rev:           18605
Checksum:              275

Satellite: CO-65
Catalog number: 32785
Epoch time:      10293.23249709
Element set:    0816
Inclination:      097.8828 deg
RA of node:       356.3374 deg
Eccentricity:    0.0014028
Arg of perigee:   235.5225 deg
Mean anomaly:     124.4648 deg
Mean motion:   14.81741754 rev/day
Decay rate:       6.88e-06 rev/day^2
Epoch rev:           13400
Checksum:              325

Satellite: KKS-1
Catalog number: 33493
Epoch time:      10294.65840673
Element set:     964
Inclination:      098.0992 deg
RA of node:       055.3402 deg
Eccentricity:    0.0021171
Arg of perigee:   092.0850 deg
Mean anomaly:     268.2792 deg
Mean motion:   14.81155992 rev/day
Decay rate:       8.63e-06 rev/day^2
Epoch rev:            9420
Checksum:              312

Satellite: SOHLA-1
Catalog number: 33496
Epoch time:      10294.87784542
Element set:     235
Inclination:      098.0674 deg
RA of node:       042.3729 deg
Eccentricity:    0.0007088
Arg of perigee:   152.5889 deg
Mean anomaly:     207.5708 deg
Mean motion:   14.69524879 rev/day
Decay rate:        1.8e-07 rev/day^2
Epoch rev:            9348
Checksum:              347

Satellite: TISAT-1
Catalog number: 36799
Epoch time:      10294.67159780
Element set:     238
Inclination:      098.1350 deg
RA of node:       355.2346 deg
Eccentricity:    0.0014942
Arg of perigee:   331.9912 deg
Mean anomaly:     028.0506 deg
Mean motion:   14.80201271 rev/day
Decay rate:       5.05e-06 rev/day^2
Epoch rev:            1502
Checksum:              284

Satellite: STUDSAT
Catalog number: 36801
Epoch time:      10293.76171783
Element set:    0113
Inclination:      098.1363 deg
RA of node:       354.2225 deg
Eccentricity:    0.0013689
Arg of perigee:   322.8011 deg
Mean anomaly:     037.2250 deg
Mean motion:   14.79727718 rev/day
Decay rate:      1.414e-05 rev/day^2
Epoch rev:           01488
Checksum:              286

/EX
SB KEPS @ AMSAT  $ORB10294.W
Orbital Elements  10294.WEATHER

HR AMSAT ORBITAL ELEMENTS FOR WEATHER SATELLITES
FROM WA5QGD FORT WORTH,TX October 21, 2010
BID: ORB10294.W
TO ALL RADIO AMATEURS BT

Satellite: NOAA-10
Catalog number: 16969
Epoch time:      10293.69507531
Element set:    0247
Inclination:      098.6474 deg
RA of node:       321.4253 deg
Eccentricity:    0.0011667
Arg of perigee:   202.4342 deg
Mean anomaly:     157.6331 deg
Mean motion:   14.27430434 rev/day
Decay rate:        2.6e-07 rev/day^2
Epoch rev:           25348
Checksum:              291

Satellite: NOAA-11
Catalog number: 19531
Epoch time:      10293.75819318
Element set:    0256
Inclination:      098.7663 deg
RA of node:       020.6238 deg
Eccentricity:    0.0011635
Arg of perigee:   146.0071 deg
Mean anomaly:     214.1852 deg
Mean motion:   14.14937989 rev/day
Decay rate:      -2.29e-06 rev/day^2
Epoch rev:           13889
Checksum:              317

Satellite: NOAA-12
Catalog number: 21263
Epoch time:      10294.75096360
Element set:     751
Inclination:      098.7643 deg
RA of node:       307.8895 deg
Eccentricity:    0.0012670
Arg of perigee:   155.5984 deg
Mean anomaly:     204.6284 deg
Mean motion:   14.25661100 rev/day
Decay rate:       1.16e-06 rev/day^2
Epoch rev:            1048
Checksum:              295

